Time,TemperatureF,DewpointF,PressureIn,WindDirection,WindDirectionDegrees,WindSpeedMPH,WindSpeedGustMPH,Humidity,HourlyPrecipIn,Conditions,Clouds,dailyrainin,SolarRadiationWatts/m^2,SoftwareType,DateUTC
2013-04-23 00:02:00,73.0,53.0,-100.00,SE,139,10.0,20.0,49,0.00,,,0.00,0.000000,,2013-04-23 05:02:00,
2013-04-23 00:32:00,71.0,54.0,-100.00,SE,146,10.0,16.0,56,0.00,,,0.00,0.000000,,2013-04-23 05:32:00,
2013-04-23 00:42:00,71.0,54.0,-100.00,SE,146,10.0,16.0,56,0.00,,,0.00,0.000000,,2013-04-23 05:42:00,
2013-04-23 00:52:00,71.0,54.0,-100.00,SE,146,10.0,16.0,56,0.00,,,0.00,0.000000,,2013-04-23 05:52:00,
2013-04-23 01:02:00,71.0,54.0,-100.00,SE,146,10.0,16.0,56,0.00,,,0.00,0.000000,,2013-04-23 06:02:00,
2013-04-23 01:33:00,70.0,55.0,-100.00,SSE,163,8.0,16.0,60,0.00,,,0.00,0.000000,,2013-04-23 06:33:00,
2013-04-23 01:42:00,70.0,55.0,-100.00,SSE,163,8.0,16.0,60,0.00,,,0.00,0.000000,,2013-04-23 06:42:00,
2013-04-23 01:52:00,70.0,55.0,-100.00,SSE,163,8.0,16.0,60,0.00,,,0.00,0.000000,,2013-04-23 06:52:00,
2013-04-23 02:02:00,70.0,55.0,-100.00,SSE,163,8.0,16.0,60,0.00,,,0.00,0.000000,,2013-04-23 07:02:00,
2013-04-23 02:32:00,69.0,55.0,-100.00,SSE,157,9.0,18.0,62,0.00,,,0.00,0.000000,,2013-04-23 07:32:00,
2013-04-23 02:42:00,69.0,55.0,-100.00,SSE,157,9.0,18.0,62,0.00,,,0.00,0.000000,,2013-04-23 07:42:00,
2013-04-23 02:52:00,69.0,55.0,-100.00,SSE,157,9.0,18.0,62,0.00,,,0.00,0.000000,,2013-04-23 07:52:00,
2013-04-23 03:02:00,69.0,55.0,-100.00,SSE,157,9.0,18.0,62,0.00,,,0.00,0.000000,,2013-04-23 08:02:00,
2013-04-23 03:32:00,68.0,56.0,-100.00,SSE,161,8.0,15.0,65,0.00,,,0.00,0.000000,,2013-04-23 08:32:00,
2013-04-23 03:42:00,68.0,56.0,-100.00,SSE,161,8.0,15.0,65,0.00,,,0.00,0.000000,,2013-04-23 08:42:00,
2013-04-23 03:52:00,68.0,56.0,-100.00,SSE,161,8.0,15.0,65,0.00,,,0.00,0.000000,,2013-04-23 08:52:00,
2013-04-23 04:01:00,68.0,56.0,-100.00,SSE,161,8.0,15.0,65,0.00,,,0.00,0.000000,,2013-04-23 09:01:00,
2013-04-23 04:33:00,67.0,56.0,-100.00,WSW,240,8.0,17.0,67,0.00,,,0.00,0.000000,,2013-04-23 09:33:00,
2013-04-23 04:43:00,67.0,56.0,-100.00,WSW,240,8.0,17.0,67,0.00,,,0.00,0.000000,,2013-04-23 09:43:00,
2013-04-23 04:53:00,67.0,56.0,-100.00,WSW,240,8.0,17.0,67,0.00,,,0.00,0.000000,,2013-04-23 09:53:00,
2013-04-23 05:02:00,67.0,56.0,-100.00,WSW,240,8.0,17.0,67,0.00,,,0.00,0.000000,,2013-04-23 10:02:00,
2013-04-23 05:33:00,58.0,48.0,-100.00,NW,314,15.0,24.0,70,0.00,,,0.00,0.000000,,2013-04-23 10:33:00,
2013-04-23 05:43:00,58.0,48.0,-100.00,NW,314,15.0,24.0,70,0.00,,,0.00,0.000000,,2013-04-23 10:43:00,
2013-04-23 05:52:00,58.0,48.0,-100.00,NW,314,15.0,24.0,70,0.00,,,0.00,0.000000,,2013-04-23 10:52:00,
2013-04-23 06:03:00,58.0,48.0,-100.00,NW,314,15.0,24.0,70,0.00,,,0.00,0.000000,,2013-04-23 11:03:00,
2013-04-23 06:32:00,50.0,42.0,-100.00,NW,313,13.0,23.0,75,0.00,,,-99.99,0.000000,,2013-04-23 11:32:00,
2013-04-23 06:43:00,50.0,42.0,-100.00,NW,313,13.0,23.0,75,0.00,,,-99.99,0.000000,,2013-04-23 11:43:00,
2013-04-23 06:53:00,50.0,42.0,-100.00,NW,313,13.0,23.0,75,0.00,,,-99.99,0.000000,,2013-04-23 11:53:00,
2013-04-23 07:02:00,50.0,42.0,-100.00,NW,313,13.0,23.0,75,0.00,,,-99.99,0.000000,,2013-04-23 12:02:00,
2013-04-23 08:32:00,45.0,40.0,-100.00,NNW,330,12.0,23.0,82,-99.99,,,0.00,16.000000,,2013-04-23 13:32:00,
2013-04-23 08:42:00,45.0,40.0,-100.00,NNW,330,12.0,23.0,82,-99.99,,,0.00,16.000000,,2013-04-23 13:42:00,
2013-04-23 08:52:00,45.0,40.0,-100.00,NNW,330,12.0,23.0,82,-99.99,,,0.00,16.000000,,2013-04-23 13:52:00,
2013-04-23 09:02:00,45.0,40.0,-100.00,NNW,330,12.0,23.0,82,-99.99,,,0.00,16.000000,,2013-04-23 14:02:00,
2013-04-23 09:32:00,42.0,37.0,-100.00,NNW,335,14.0,24.0,82,0.00,,,0.00,55.000000,,2013-04-23 14:32:00,
2013-04-23 09:42:00,42.0,37.0,-100.00,NNW,335,14.0,24.0,82,0.00,,,0.00,55.000000,,2013-04-23 14:42:00,
2013-04-23 09:52:00,42.0,37.0,-100.00,NNW,335,14.0,24.0,82,0.00,,,0.00,55.000000,,2013-04-23 14:52:00,
2013-04-23 10:01:00,42.0,37.0,-100.00,NNW,335,14.0,24.0,82,0.00,,,0.00,55.000000,,2013-04-23 15:01:00,
2013-04-23 10:32:00,42.0,38.0,-100.00,NW,324,13.0,23.0,84,0.00,,,0.00,101.000000,,2013-04-23 15:32:00,
2013-04-23 10:43:00,42.0,38.0,-100.00,NW,324,13.0,23.0,84,0.00,,,0.00,101.000000,,2013-04-23 15:43:00,
2013-04-23 10:53:00,42.0,38.0,-100.00,NW,324,13.0,23.0,84,0.00,,,0.00,101.000000,,2013-04-23 15:53:00,
2013-04-23 11:03:00,42.0,38.0,-100.00,NW,324,13.0,23.0,84,0.00,,,0.00,101.000000,,2013-04-23 16:03:00,
2013-04-23 11:34:00,43.0,36.0,-100.00,NNW,335,13.0,22.0,77,0.00,,,0.00,165.000000,,2013-04-23 16:34:00,
2013-04-23 11:43:00,43.0,36.0,-100.00,NNW,335,13.0,22.0,77,0.00,,,0.00,165.000000,,2013-04-23 16:43:00,
2013-04-23 11:53:00,43.0,36.0,-100.00,NNW,335,13.0,22.0,77,0.00,,,0.00,165.000000,,2013-04-23 16:53:00,
2013-04-23 12:02:00,43.0,36.0,-100.00,NNW,335,13.0,22.0,77,0.00,,,0.00,165.000000,,2013-04-23 17:02:00,
2013-04-23 12:33:00,44.0,36.0,-100.00,NNW,341,13.0,23.0,72,0.00,,,0.00,236.000000,,2013-04-23 17:33:00,
2013-04-23 12:43:00,44.0,36.0,-100.00,NNW,341,13.0,23.0,72,0.00,,,0.00,236.000000,,2013-04-23 17:43:00,
2013-04-23 12:53:00,44.0,36.0,-100.00,NNW,341,13.0,23.0,72,0.00,,,0.00,236.000000,,2013-04-23 17:53:00,
2013-04-23 13:02:00,44.0,36.0,-100.00,NNW,341,13.0,23.0,72,0.00,,,0.00,236.000000,,2013-04-23 18:02:00,
2013-04-23 13:32:00,45.0,36.0,-100.00,NNW,335,13.0,23.0,70,0.00,,,0.00,305.000000,,2013-04-23 18:32:00,
2013-04-23 13:42:00,45.0,36.0,-100.00,NNW,335,13.0,23.0,70,0.00,,,0.00,305.000000,,2013-04-23 18:42:00,
2013-04-23 13:52:00,45.0,36.0,-100.00,NNW,335,13.0,23.0,70,0.00,,,0.00,305.000000,,2013-04-23 18:52:00,
2013-04-23 14:02:00,45.0,36.0,-100.00,NNW,335,13.0,23.0,70,0.00,,,0.00,305.000000,,2013-04-23 19:02:00,
2013-04-23 14:32:00,45.0,34.0,-100.00,NNW,339,13.0,22.0,66,0.00,,,0.00,251.000000,,2013-04-23 19:32:00,
2013-04-23 14:42:00,45.0,34.0,-100.00,NNW,339,13.0,22.0,66,0.00,,,0.00,251.000000,,2013-04-23 19:42:00,
2013-04-23 14:52:00,45.0,34.0,-100.00,NNW,339,13.0,22.0,66,0.00,,,0.00,251.000000,,2013-04-23 19:52:00,
2013-04-23 15:02:00,45.0,34.0,-100.00,NNW,339,13.0,22.0,66,0.00,,,0.00,251.000000,,2013-04-23 20:02:00,
2013-04-23 15:32:00,45.0,34.0,-100.00,NNW,345,13.0,21.0,64,0.00,,,0.00,190.000000,,2013-04-23 20:32:00,
2013-04-23 15:42:00,45.0,34.0,-100.00,NNW,345,13.0,21.0,64,0.00,,,0.00,190.000000,,2013-04-23 20:42:00,
2013-04-23 15:52:00,45.0,34.0,-100.00,NNW,345,13.0,21.0,64,0.00,,,0.00,190.000000,,2013-04-23 20:52:00,
2013-04-23 16:02:00,45.0,34.0,-100.00,NNW,345,13.0,21.0,64,0.00,,,0.00,190.000000,,2013-04-23 21:02:00,
2013-04-23 16:33:00,47.0,35.0,-100.00,NNW,347,11.0,18.0,62,0.00,,,0.00,142.000000,,2013-04-23 21:33:00,
2013-04-23 16:43:00,47.0,35.0,-100.00,NNW,347,11.0,18.0,62,0.00,,,0.00,142.000000,,2013-04-23 21:43:00,
2013-04-23 16:52:00,47.0,35.0,-100.00,NNW,347,11.0,18.0,62,0.00,,,0.00,142.000000,,2013-04-23 21:52:00,
2013-04-23 17:03:00,47.0,35.0,-100.00,NNW,347,11.0,18.0,62,0.00,,,0.00,142.000000,,2013-04-23 22:03:00,
2013-04-23 17:33:00,46.0,34.0,-100.00,NNW,347,13.0,19.0,63,0.00,,,0.00,92.000000,,2013-04-23 22:33:00,
2013-04-23 17:42:00,46.0,34.0,-100.00,NNW,347,13.0,19.0,63,0.00,,,0.00,92.000000,,2013-04-23 22:42:00,
2013-04-23 17:52:00,46.0,34.0,-100.00,NNW,347,13.0,19.0,63,0.00,,,0.00,92.000000,,2013-04-23 22:52:00,
2013-04-23 18:03:00,46.0,34.0,-100.00,NNW,347,13.0,19.0,63,0.00,,,0.00,92.000000,,2013-04-23 23:03:00,
2013-04-23 18:32:00,46.0,35.0,-100.00,North,352,13.0,21.0,64,0.00,,,0.00,89.000000,,2013-04-23 23:32:00,
2013-04-23 18:42:00,46.0,35.0,-100.00,North,352,13.0,21.0,64,0.00,,,0.00,89.000000,,2013-04-23 23:42:00,
2013-04-23 18:52:00,46.0,35.0,-100.00,North,352,13.0,21.0,64,0.00,,,0.00,89.000000,,2013-04-23 23:52:00,
2013-04-23 19:01:00,46.0,35.0,-100.00,North,352,13.0,21.0,64,0.00,,,0.00,89.000000,,2013-04-24 00:01:00,
2013-04-23 20:32:00,44.0,33.0,-100.00,North,355,12.0,20.0,66,-99.99,,,0.00,12.000000,,2013-04-24 01:32:00,
2013-04-23 20:43:00,44.0,33.0,-100.00,North,355,12.0,20.0,66,-99.99,,,0.00,12.000000,,2013-04-24 01:43:00,
2013-04-23 20:52:00,44.0,33.0,-100.00,North,355,12.0,20.0,66,-99.99,,,0.00,12.000000,,2013-04-24 01:52:00,
2013-04-23 21:02:00,44.0,33.0,-100.00,North,355,12.0,20.0,66,-99.99,,,0.00,12.000000,,2013-04-24 02:02:00,
2013-04-23 21:05:00,42.0,32.0,-100.00,NNW,348,14.0,22.0,67,0.00,,,0.00,0.000000,,2013-04-24 02:05:00,
2013-04-23 21:42:00,42.0,32.0,-100.00,NNW,348,14.0,22.0,67,0.00,,,0.00,0.000000,,2013-04-24 02:42:00,
2013-04-23 22:00:00,42.0,32.0,-100.00,NNW,348,14.0,22.0,67,0.00,,,0.00,0.000000,,2013-04-24 03:00:00,
2013-04-23 22:44:00,42.0,32.0,-100.00,North,352,14.0,25.0,68,0.00,,,0.00,0.000000,,2013-04-24 03:44:00,
2013-04-23 23:01:00,42.0,32.0,-100.00,North,352,14.0,25.0,68,0.00,,,0.00,0.000000,,2013-04-24 04:01:00,
2013-04-23 23:03:00,42.0,32.0,-100.00,North,352,14.0,25.0,68,0.00,,,0.00,0.000000,,2013-04-24 04:03:00,
2013-04-23 23:33:00,40.0,31.0,-100.00,North,350,14.0,25.0,70,0.00,,,0.00,0.000000,,2013-04-24 04:33:00,
2013-04-23 23:43:00,40.0,31.0,-100.00,North,350,14.0,25.0,70,0.00,,,0.00,0.000000,,2013-04-24 04:43:00,
2013-04-23 23:53:00,40.0,31.0,-100.00,North,350,14.0,25.0,70,0.00,,,0.00,0.000000,,2013-04-24 04:53:00,